CW2414 Weather Reports


time (UTC)temp
F
wind
direction
speed
knots
gust
knots
rain 1hr
in
rain 24hr
in
rain mn
in
humidity
%
barometer
mb
20260508100016 35 221 0.0 1.7 0.00 0.00 0.00 88 1004.6
20260508094513 35 221 0.0 2.6 0.00 0.00 0.00 88 1004.4
20260508093016 35 221 0.9 1.7 0.00 0.00 0.00 88 1004.3
20260508091511 34 221 0.9 2.6 0.00 0.00 0.00 88 1004.3
20260508090021 35 219 1.7 2.6 0.00 0.00 0.00 86 1004.2
20260508084509 35 240 0.0 3.5 0.00 0.01 0.00 87 1004.0
20260508083007 36 226 0.0 2.6 0.00 0.01 0.00 85 1004.0
20260508081509 36 234 0.9 2.6 0.00 0.01 0.00 87 1003.8
20260508080007 36 221 0.9 4.3 0.00 0.01 0.00 86 1003.8
20260508074505 35 243 0.9 1.7 0.00 0.15 0.00 87 1003.9
20260508073004 35 243 0.9 2.6 0.00 0.15 0.00 86 1003.9
20260508071506 36 261 0.9 1.7 0.00 0.15 0.00 84 1003.9
20260508070058 38 261 0.9 2.6 0.00 0.15 0.00 80 1003.9
20260508064556 38 263 0.0 0.9 0.00 0.19 0.00 80 1003.8
20260508063054 39 268 0.9 1.7 0.00 0.19 0.00 79 1004.0
20260508061552 40 283 0.0 0.9 0.00 0.19 0.00 79 1004.0
20260508060053 39 283 0.0 1.7 0.00 0.19 0.00 80 1004.0
20260508054548 39 246 0.0 1.7 0.00 0.22 0.00 78 1004.2
20260508053047 41 246 0.9 1.7 0.00 0.22 0.00 74 1004.3
20260508051545 41 246 0.9 1.7 0.00 0.22 0.00 75 1004.3
20260508050042 42 246 0.9 1.7 0.00 0.22 0.00 72 1004.6
20260508044536 44 246 0.0 2.6 0.00 0.23 0.00 68 1004.7
20260508043031 45 255 0.9 2.6 0.00 0.23 0.00 63 1004.7
20260508041528 46 270 1.7 5.2 0.00 0.23 0.00 60 1004.7
20260508040024 47 252 2.6 6.1 0.00 0.23 0.00 58 1004.7
20260508034523 48 263 1.7 6.1 0.00 0.27 0.23 56 1004.7
20260508033022 49 265 0.9 8.7 0.00 0.27 0.23 54 1004.7
20260508031521 49 333 2.6 7.8 0.00 0.27 0.23 52 1004.5
20260508030021 50 256 1.7 3.5 0.00 0.27 0.23 53 1004.6
20260508024520 50 343 1.7 3.5 0.00 0.30 0.23 53 1004.6
20260508023019 51 292 1.7 8.7 0.00 0.30 0.23 51 1004.7
20260508021526 51 273 2.6 9.6 0.00 0.30 0.23 50 1004.8
20260508020017 52 214 1.7 7.0 0.00 0.30 0.23 55 1004.7
20260508014517 53 329 3.5 8.7 0.00 0.30 0.23 59 1004.6
20260508013029 53 281 1.7 8.7 0.00 0.30 0.23 67 1004.4
20260508011516 53 269 2.6 10.4 0.00 0.30 0.23 68 1004.5
20260508010016 54 281 0.9 5.2 0.00 0.30 0.23 70 1004.3
20260508004529 54 286 0.9 5.2 0.00 0.30 0.23 67 1004.2
20260508003016 55 304 1.7 6.1 0.00 0.30 0.23 64 1003.9
20260508001518 55 278 1.7 3.5 0.00 0.30 0.23 63 1003.8
20260508000014 55 322 2.6 7.0 0.00 0.30 0.23 63 1003.4
20260507234512 55 335 1.7 3.5 0.00 0.30 0.23 63 1003.1
20260507233022 56 12 0.9 5.2 0.00 0.30 0.23 62 1002.7
20260507231511 56 312 1.7 7.0 0.00 0.30 0.23 60 1002.4
20260507230010 57 311 2.6 6.1 0.00 0.30 0.23 59 1002.3
20260507224511 57 282 2.6 8.7 0.00 0.30 0.23 56 1002.2
20260507223010 59 327 5.2 13.0 0.00 0.30 0.23 53 1002.0
20260507221516 61 260 2.6 6.1 0.00 0.30 0.23 44 1001.8
20260507220011 62 232 4.3 10.4 0.00 0.30 0.23 43 1001.6
20260507214510 62 226 3.5 8.7 0.00 0.30 0.23 44 1001.6
20260507213009 63 234 4.3 10.4 0.00 0.30 0.23 42 1001.6
20260507211629 62 252 2.6 5.2 0.00 0.30 0.23 44 1001.4
20260507210018 62 236 4.3 9.6 0.00 0.30 0.23 41 1001.4
20260507204506 62 259 3.5 9.6 0.00 0.30 0.23 42 1001.3
20260507203008 62 274 4.3 9.6 0.00 0.30 0.23 41 1001.3
20260507201508 62 275 1.7 7.8 0.00 0.30 0.23 42 1001.2
20260507200003 63 252 2.6 8.7 0.00 0.30 0.23 39 1001.1
20260507194503 63 321 6.1 15.6 0.00 0.30 0.23 38 1001.2
20260507193100 64 237 5.2 13.9 0.00 0.30 0.23 38 1001.4
20260507191557 63 290 1.7 5.2 0.00 0.30 0.23 47 1001.4
20260507190053 62 325 2.6 4.3 0.00 0.30 0.23 48 1001.5
20260507184603 61 255 1.7 8.7 0.00 0.30 0.23 48 1001.6
20260507183049 61 313 1.7 8.7 0.00 0.30 0.23 54 1001.9
20260507181548 60 350 1.7 6.1 0.00 0.30 0.23 53 1002.1
20260507180051 61 296 1.7 8.7 0.00 0.30 0.23 49 1002.0
20260507174550 61 279 1.7 8.7 0.00 0.30 0.23 49 1002.0
20260507173044 61 242 2.6 7.8 0.00 0.30 0.23 53 1002.1
20260507171549 60 329 2.6 9.6 0.00 0.30 0.23 50 1002.2
20260507170041 60 320 5.2 9.6 0.00 0.30 0.23 52 1002.4
20260507164539 58 237 4.3 9.6 0.00 0.30 0.23 54 1002.4
20260507163037 59 101 2.6 7.8 0.00 0.30 0.23 58 1002.6
20260507161539 58 355 2.6 8.7 0.00 0.30 0.23 57 1002.9
20260507160034 57 234 3.5 10.4 0.00 0.30 0.23 61 1003.1
20260507154536 57 234 1.7 12.2 0.00 0.30 0.23 56 1003.2
20260507153039 56 259 5.2 11.3 0.00 0.30 0.23 61 1003.3
20260507151526 56 5 3.5 7.8 0.00 0.30 0.23 67 1003.4
20260507150026 56 275 1.7 7.0 0.00 0.30 0.23 70 1003.8
20260507144521 55 267 2.6 7.8 0.00 0.30 0.23 73 1004.0
20260507143025 54 263 5.2 10.4 0.00 0.30 0.23 73 1003.9
20260507141518 54 282 3.5 8.7 0.00 0.30 0.23 75 1004.3
20260507140015 52 326 1.7 7.8 0.00 0.30 0.23 80 1004.7
20260507134515 51 276 1.7 7.8 0.00 0.30 0.23 81 1004.2
20260507133013 51 255 2.6 8.7 0.00 0.30 0.23 83 1004.3
20260507131518 51 290 2.6 8.7 0.00 0.30 0.23 85 1004.2
20260507130021 50 270 1.7 7.0 0.00 0.30 0.23 87 1004.1
20260507124511 49 232 0.0 4.3 0.00 0.31 0.23 90 1003.9
20260507123009 49 288 1.7 7.0 0.00 0.31 0.23 90 1004.7
20260507121507 48 293 0.9 7.0 0.00 0.31 0.23 91 1005.1
20260507120006 48 268 0.0 3.5 0.00 0.31 0.23 92 1004.8
20260507114504 48 318 2.6 8.7 0.00 0.31 0.23 92 1004.6
20260507113000 48 281 0.9 4.3 0.00 0.31 0.23 95 1004.4
20260507111559 48 263 0.9 3.5 0.00 0.31 0.23 95 1003.9
20260507110057 49 350 1.7 5.2 0.00 0.31 0.23 95 1003.9
20260507104556 49 289 1.7 4.3 0.00 0.31 0.23 95 1003.9
20260507103056 49 294 0.9 3.5 0.00 0.31 0.23 95 1003.9
20260507101557 49 261 1.7 3.5 0.00 0.31 0.23 95 1003.7